Theta_e
316 317 317 317 317 316 316 317 317 318 318 317 316 316 316 317 318 317 319 320 319 317 318 317 316 317 317 317 317 318 320 322 321 321 322 323 325 325 324 326 328 334 336 335 335 337 335 335 333 333 334 332 330 329 329 332 331 331 329 328 329 328 328 328 326 325 323 322 319 321 324 328 330 330 328 328 328 329 330 330 328 326 325 325 325
316 315 316 316 315 315 315 315 320 314 317 316 315 316 315 315 315 316 318 319 318 317 317 316 315 316 316 316 316 316 317 318 318 320 322 324 324 324 324 324 324 326 334 332 332 332 332 333 333 333 332 333 332 332 332 332 330 331 331 330 328 326 325 326 327 326 322 318 318 317 316 321 326 327 328 328 328 328 329 330 329 327 326 326 326
313 313 314 314 315 315 314 313 313 313 313 314 314 314 315 315 313 314 315 317 318 321 317 315 314 316 316 316 316 316 317 320 320 321 322 322 322 322 323 323 324 325 326 330 333 333 333 332 333 333 333 334 332 332 332 329 329 329 330 328 327 326 326 326 325 324 320 317 318 315 311 313 315 320 325 327 328 328 329 329 330 329 328 328 328
310 310 311 312 313 312 312 312 312 311 312 312 312 312 314 317 312 312 313 314 315 317 320 317 319 318 316 316 318 316 316 322 319 320 320 320 322 322 322 323 324 324 326 327 331 329 331 332 333 331 332 333 332 331 331 332 329 330 330 329 328 325 326 325 326 326 326 322 316 317 313 312 312 312 318 322 327 328 329 330 330 330 330 330 329
309 309 310 310 310 311 311 312 310 311 310 311 312 312 315 311 312 311 312 313 314 317 314 317 318 315 316 317 317 317 317 318 317 318 319 321 323 321 322 324 324 325 325 326 330 330 328 328 330 332 331 332 332 331 331 331 328 327 327 327 325 327 327 326 325 325 325 326 322 314 313 312 312 311 313 318 319 324 327 329 328 329 329 329 329
310 309 309 309 310 309 310 310 310 310 311 311 312 312 312 311 312 312 313 313 315 314 315 318 315 313 313 313 314 312 313 314 315 316 317 318 319 321 322 324 324 325 325 325 326 328 326 326 327 329 329 331 329 330 331 329 328 328 328 328 328 328 325 324 323 325 327 326 325 324 321 316 313 315 316 311 317 322 325 326 329 328 328 329 328
309 309 309 309 309 309 309 309 309 310 310 311 312 312 312 313 311 311 311 315 316 313 315 318 313 313 313 312 313 312 312 314 316 318 318 319 321 320 321 323 324 324 325 325 324 326 325 326 326 326 328 329 331 329 328 329 330 332 331 328 327 327 326 322 322 322 325 326 326 325 325 325 324 319 316 314 314 314 317 320 325 327 327 327 327
308 308 308 309 308 309 308 309 309 311 312 311 311 311 312 311 312 311 312 314 313 312 315 315 314 313 312 312 315 314 314 315 318 319 320 323 320 320 321 322 324 324 325 326 326 327 328 325 326 326 327 326 330 327 326 327 329 330 329 325 327 328 327 325 323 325 323 324 325 322 323 325 325 323 322 319 315 313 314 318 320 324 323 327 328
308 308 308 308 308 308 309 309 310 311 311 311 311 311 311 310 313 311 309 309 311 312 314 312 318 313 313 312 312 316 317 319 320 319 319 320 319 320 320 321 322 324 324 325 326 325 328 326 324 325 325 326 329 326 326 327 328 326 324 326 327 328 328 327 326 324 325 323 323 322 323 323 323 323 324 322 316 313 316 316 318 318 322 325 326
308 308 308 308 308 308 309 310 310 311 311 314 314 311 311 309 311 310 308 309 310 310 310 311 314 317 312 312 312 314 316 317 317 317 318 318 318 319 320 320 321 322 323 324 325 325 323 324 324 323 322 323 328 324 323 322 324 323 324 325 326 326 327 327 326 326 326 325 324 322 321 322 320 318 318 319 319 319 316 317 319 318 317 319 321
307 307 308 308 309 309 309 309 310 310 310 310 310 310 309 309 308 307 307 309 309 309 309 311 312 314 313 313 312 313 315 315 315 316 317 317 317 318 319 319 320 321 322 324 323 325 324 326 323 323 323 325 324 323 323 324 326 326 326 327 328 327 327 326 326 327 327 325 324 324 323 322 320 317 318 318 318 316 317 318 318 320 321 320 322
307 307 307 308 308 309 308 308 308 310 309 309 310 310 310 308 307 307 306 307 309 310 310 311 313 313 314 313 313 314 314 315 314 314 316 316 317 318 318 319 320 321 322 322 323 324 326 322 323 321 323 322 322 322 322 323 323 327 328 326 325 325 325 326 326 326 325 324 324 325 325 324 323 322 322 321 319 319 319 318 318 315 318 320 323
307 307 307 308 308 308 308 308 307 307 308 308 309 309 309 309 307 306 305 306 308 308 309 310 311 313 314 313 313 317 316 315 315 314 315 316 317 318 318 317 319 320 321 321 323 323 324 323 323 321 321 321 323 322 322 323 322 323 324 324 326 326 327 327 326 326 327 326 326 328 326 324 323 324 324 323 322 321 319 318 319 319 319 319 319
307 307 307 308 308 309 308 308 308 308 307 308 309 310 309 309 307 307 306 306 307 308 308 310 310 313 313 313 314 314 314 317 316 315 317 317 317 317 317 317 318 319 319 320 323 324 323 324 323 322 321 322 323 323 322 322 322 321 322 324 325 326 326 326 325 325 325 325 326 326 325 325 325 325 325 324 322 320 319 319 318 318 319 319 318
306 306 307 307 308 308 308 308 308 308 308 308 308 308 308 307 305 306 305 305 306 307 309 309 310 313 314 313 314 316 317 316 316 318 317 317 318 318 318 319 318 319 318 321 325 323 322 323 324 322 323 323 324 323 324 323 322 322 322 324 325 326 327 327 326 323 322 322 323 325 327 327 327 328 325 324 325 324 323 321 319 316 317 317 317
306 306 307 307 308 308 308 308 308 308 309 308 308 307 307 306 305 304 305 305 305 309 309 309 311 312 312 311 312 316 319 317 316 317 317 317 318 318 318 319 319 319 321 322 321 322 322 320 320 319 318 318 318 319 320 320 322 323 323 321 320 323 324 325 324 323 323 323 324 326 327 326 327 327 328 327 327 326 324 323 322 320 316 314 317
306 306 307 307 307 308 309 308 308 308 308 307 307 308 308 307 306 304 305 305 304 308 309 310 310 310 310 310 311 313 314 314 314 315 316 318 318 318 318 319 321 321 321 322 316 314 314 313 312 312 311 311 311 312 313 314 316 318 321 323 323 323 323 323 323 324 326 326 326 326 327 327 327 327 326 325 326 326 325 325 324 321 320 317 315
307 307 307 307 308 308 308 309 308 308 308 308 308 308 308 307 305 304 306 304 304 306 310 309 309 310 310 311 311 311 313 314 314 315 316 317 317 318 318 319 319 318 317 316 313 310 309 310 307 306 306 306 305 306 307 308 310 313 316 318 318 322 322 322 323 323 324 325 326 327 326 325 325 326 326 328 327 325 323 324 324 324 323 318 317
306 306 306 307 307 307 308 308 309 309 310 309 309 308 308 306 304 305 304 305 307 310 310 310 310 311 311 311 310 312 313 314 315 316 316 317 317 317 316 316 315 315 313 311 309 306 305 304 303 302 302 302 302 302 303 304 307 309 312 313 314 317 321 321 322 323 324 324 322 320 321 321 323 323 324 325 326 326 325 326 325 324 323 322 319
305 306 306 307 307 308 308 308 308 307 308 308 307 308 307 305 307 306 306 305 306 308 310 308 310 310 310 311 311 312 313 314 314 314 315 316 317 317 316 314 313 312 309 307 305 303 302 301 301 300 300 300 300 300 301 302 304 306 308 309 310 312 318 322 322 323 321 319 317 315 314 314 316 315 314 315 318 320 323 324 325 324 323 323 322
305 306 306 307 307 306 307 308 308 307 308 307 306 307 305 303 305 306 303 303 304 307 308 308 308 308 310 309 310 310 312 314 314 314 314 315 317 317 315 313 310 307 305 303 302 301 301 300 299 300 298 298 298 298 299 300 301 303 305 307 308 310 316 322 321 317 317 315 312 309 309 309 309 309 309 309 310 314 316 316 317 319 321 323 322
305 305 306 306 306 306 307 307 307 306 305 303 305 303 302 303 305 304 304 304 304 306 308 308 309 308 308 309 309 310 311 313 313 312 314 314 315 315 313 309 306 304 303 301 300 300 299 299 298 297 297 297 297 297 297 298 300 301 303 306 307 310 317 316 314 310 310 309 306 303 303 304 306 304 305 305 306 308 310 310 310 312 313 314 317
305 305 306 306 306 306 306 306 306 305 303 303 303 302 302 303 304 304 304 304 305 307 308 308 308 308 309 309 310 311 312 313 312 311 311 313 314 314 313 308 305 303 303 301 300 299 298 297 297 296 296 296 296 296 296 297 298 299 302 304 307 313 315 311 308 307 305 304 301 300 299 300 302 300 300 301 301 303 305 305 305 308 308 310 313
305 305 306 306 306 306 305 304 304 303 303 303 302 302 302 303 304 304 305 305 305 306 308 308 307 307 307 308 310 312 313 312 311 311 310 311 312 314 313 308 305 303 302 301 300 298 297 297 296 296 296 296 296 296 296 297 297 298 301 304 308 314 313 310 307 305 303 302 300 298 298 297 298 297 297 297 298 300 301 302 303 304 306 308 311
303 304 304 305 306 305 305 304 303 303 303 302 303 302 302 303 304 304 304 304 304 306 306 307 307 307 307 306 308 309 311 311 311 310 310 311 311 313 314 309 306 304 302 301 300 299 297 296 295 295 295 295 295 295 296 296 297 298 301 304 309 313 311 308 306 305 305 302 300 299 298 296 296 295 295 295 296 297 299 300 300 302 304 306 308
304 304 304 304 305 305 303 303 304 303 303 302 302 303 303 303 304 304 304 304 305 305 305 306 306 306 306 306 306 306 308 309 309 309 309 310 310 310 311 309 306 303 301 300 299 298 297 295 294 294 294 295 295 295 295 296 297 299 301 305 308 311 309 307 305 304 303 302 300 299 299 297 295 294 294 295 296 296 298 299 299 301 302 304 306
304 304 304 304 302 301 303 303 304 303 302 302 303 303 302 303 304 304 303 304 304 304 304 305 306 305 305 305 305 306 307 307 307 308 309 309 309 309 309 308 306 303 301 299 298 296 296 294 293 293 293 294 295 296 295 296 297 298 301 304 306 307 308 308 306 304 303 303 300 299 299 297 295 295 294 295 295 297 298 298 300 301 302 302 303
304 304 303 302 301 301 302 302 303 302 302 302 303 303 303 304 303 303 304 304 306 302 303 304 305 305 304 306 305 307 308 307 308 309 308 308 308 308 308 307 305 301 300 298 296 295 294 294 293 292 293 295 294 295 296 296 297 298 301 303 305 304 303 303 303 302 300 299 299 299 298 298 297 296 296 296 296 297 297 298 299 301 300 299 300
303 303 303 302 300 301 301 301 302 301 300 301 301 301 303 304 304 304 305 303 303 302 303 304 304 303 304 304 307 309 306 306 307 307 307 307 307 307 307 307 305 302 301 298 296 295 294 293 292 291 291 293 294 295 296 296 297 299 300 303 304 303 302 300 299 298 298 296 296 298 299 299 301 302 300 300 300 301 299 297 299 299 298 297 297
302 303 303 302 301 301 301 301 300 300 300 300 300 301 302 302 302 302 303 303 302 302 303 303 303 303 304 304 306 305 305 305 305 305 305 306 306 306 305 304 302 301 299 298 296 296 295 293 291 290 290 292 293 295 299 298 299 300 300 302 303 302 300 299 297 296 296 296 295 294 299 303 301 301 299 298 297 298 301 301 299 297 297 296 296
303 303 303 303 302 302 301 301 300 300 300 300 300 301 301 301 301 302 303 304 303 303 302 302 302 303 304 304 304 304 304 304 304 304 304 305 306 305 304 304 303 302 300 299 296 295 295 293 291 289 289 291 293 295 296 294 295 298 302 301 301 300 299 297 296 295 294 295 294 294 294 299 299 298 296 296 296 296 297 297 298 300 301 297 295
303 303 303 303 303 302 302 301 301 301 300 300 300 300 301 301 301 302 303 303 303 303 302 302 303 303 304 304 305 304 304 304 304 303 304 305 305 304 303 302 302 301 301 299 297 296 295 294 291 289 289 291 292 296 293 294 295 295 300 301 300 299 298 296 295 294 294 294 293 293 294 295 297 297 295 292 295 297 296 297 296 297 297 296 296
304 303 303 303 304 304 303 303 302 300 300 301 301 300 300 301 301 303 304 302 302 302 302 303 303 304 304 304 304 304 304 303 303 303 304 304 304 304 302 301 301 301 300 299 297 296 295 293 290 289 289 290 291 294 293 294 294 294 296 300 299 298 297 295 294 293 292 292 292 293 293 293 294 300 296 292 292 293 297 298 298 298 299 298 294
304 304 304 304 305 305 305 304 302 300 301 301 302 301 301 302 303 303 302 301 301 301 302 303 303 303 303 303 303 303 302 302 302 302 302 302 303 302 302 302 301 300 299 298 298 297 295 293 291 289 288 289 290 294 293 293 293 293 294 296 298 297 296 294 294 293 293 292 292 292 292 292 292 293 293 292 292 291 292 293 293 294 294 297 298
303 303 303 304 305 305 304 303 301 301 300 301 301 302 301 301 301 301 301 301 301 301 301 301 302 302 302 302 303 302 301 301 301 301 301 301 302 302 302 301 300 299 298 298 298 297 296 294 291 289 289 289 290 292 292 292 292 293 293 295 295 297 297 295 294 293 292 292 292 293 292 291 292 292 294 293 292 291 291 292 292 292 293 294 295
303 303 303 304 305 305 304 302 303 302 301 302 301 301 302 301 301 301 301 301 301 300 300 300 301 301 302 302 302 301 301 300 300 299 300 300 299 301 301 301 300 298 298 298 297 298 295 292 291 289 288 288 289 291 291 292 292 291 293 294 293 293 294 295 295 294 294 293 293 293 292 292 291 292 294 292 294 293 290 291 291 291 292 292 294
302 304 304 306 307 306 304 303 301 301 301 301 301 302 302 301 300 300 301 300 300 300 299 301 301 301 301 301 302 301 300 300 299 299 298 298 298 300 301 301 299 298 297 297 297 297 296 293 292 289 288 287 288 291 291 291 291 291 291 290 291 292 292 292 293 295 295 294 296 297 293 292 291 291 293 291 291 295 290 290 290 289 291 291 292
302 303 305 305 305 304 304 301 300 300 301 301 301 301 301 300 299 299 300 299 300 300 300 301 300 301 301 301 301 301 300 300 298 298 298 297 297 298 301 301 298 297 296 296 297 297 296 294 290 289 289 287 287 291 291 291 291 291 292 288 289 290 290 291 291 293 294 291 294 300 300 293 291 292 291 291 291 294 290 290 289 288 288 288 289
304 304 304 304 303 303 302 300 300 299 299 300 300 300 300 299 299 298 299 298 299 299 300 300 300 300 300 301 300 300 299 299 299 297 297 297 297 299 300 300 299 298 298 297 300 296 295 293 292 292 295 289 288 291 291 290 291 291 291 287 288 287 288 288 289 291 292 290 290 293 298 295 294 293 290 291 291 293 289 289 288 287 287 286 288
304 305 305 304 303 302 299 298 298 298 299 299 299 300 301 299 298 297 298 298 298 300 300 300 300 301 301 300 300 300 299 298 298 296 296 297 298 297 297 297 298 298 298 297 298 297 295 294 293 289 291 288 288 288 290 290 291 291 291 289 287 286 287 287 287 292 290 288 288 289 293 292 291 290 290 291 291 292 289 288 288 287 286 286 288
303 303 304 303 302 301 300 299 299 298 299 298 300 299 300 300 298 297 298 299 299 300 300 300 300 300 300 301 300 299 299 298 298 297 298 298 296 297 296 296 297 296 296 296 297 297 296 292 290 289 289 289 290 287 290 290 290 290 290 289 286 286 284 285 285 289 287 286 286 287 288 293 291 290 291 291 291 291 292 290 288 287 288 290 289
304 304 303 302 301 300 299 298 298 298 299 299 299 299 299 298 297 297 297 299 299 300 300 300 300 300 300 300 299 299 300 300 299 299 296 296 296 297 296 297 295 294 294 295 296 296 294 293 291 291 290 289 292 293 287 290 289 289 289 290 287 287 288 286 287 287 286 286 285 286 288 292 290 291 291 290 290 290 291 292 288 289 289 289 289
302 301 303 303 301 300 299 299 298 298 298 299 299 299 298 298 297 297 298 299 299 299 300 300 300 299 300 299 299 300 301 302 300 299 297 296 297 295 295 295 296 294 293 294 295 294 293 290 288 288 287 287 287 289 290 287 289 288 288 289 289 288 289 290 286 287 285 285 285 285 289 294 290 291 290 290 290 290 291 289 289 289 288 288 289
304 304 303 303 301 300 299 298 298 298 298 298 299 299 298 297 297 298 298 299 299 299 299 299 299 299 299 299 300 300 300 299 300 298 297 295 294 293 294 295 293 293 292 292 292 292 290 288 286 286 287 286 286 285 288 289 287 287 287 288 288 288 288 288 288 286 286 286 285 286 290 290 291 290 290 290 289 290 289 289 289 289 288 288 286
303 303 303 302 301 300 299 298 298 297 298 298 299 299 298 297 297 298 298 299 298 298 298 298 298 298 298 299 299 298 299 298 298 297 296 294 292 292 291 291 292 290 289 290 289 291 289 288 286 286 285 285 284 282 281 287 288 287 287 287 287 288 288 288 286 287 287 287 288 289 290 290 290 290 290 290 289 290 289 289 289 289 290 284 284
304 303 303 303 302 301 299 299 298 297 298 299 298 299 298 298 298 299 298 298 298 298 297 297 297 297 298 299 297 296 296 297 296 296 296 293 293 292 291 289 290 289 288 288 288 288 289 289 287 286 286 284 284 282 280 280 286 286 286 286 287 288 288 288 288 287 288 289 290 290 290 290 290 290 290 288 287 288 289 289 289 289 285 284 283
303 304 303 302 301 300 299 299 298 297 297 298 298 299 300 298 300 299 298 298 298 298 298 297 296 296 296 297 296 296 295 296 294 294 296 295 292 291 292 291 288 288 288 287 290 290 289 288 286 286 285 285 284 281 280 279 279 279 279 282 282 284 287 286 286 286 287 287 290 292 288 289 289 289 289 289 289 289 287 286 284 284 284 284 284
305 304 303 302 301 300 300 299 299 298 298 299 299 299 299 299 300 299 298 298 298 297 297 296 296 296 296 296 296 296 297 294 293 293 291 289 290 291 290 289 288 287 287 286 288 287 288 287 284 284 284 285 283 282 281 279 279 281 280 279 281 283 281 281 282 283 284 288 287 290 288 288 287 286 285 284 284 285 284 284 283 282 283 284 286
303 303 302 302 301 301 301 300 300 299 298 298 299 299 299 299 300 299 298 298 297 297 297 296 296 296 296 296 296 296 295 292 291 291 289 288 288 289 289 288 287 286 287 288 286 286 287 285 284 283 283 284 284 283 284 286 283 287 284 282 281 280 281 282 287 288 287 286 285 285 284 284 283 284 283 283 282 282 283 283 283 282 281 281 281
305 304 303 303 302 302 301 301 301 299 299 299 299 300 299 301 300 299 298 298 298 296 296 296 296 296 296 295 295 293 293 292 291 289 288 287 288 290 288 286 287 291 291 289 289 286 287 285 283 283 282 280 279 282 289 287 286 286 287 286 287 287 288 286 288 288 287 281 282 282 282 282 282 281 281 281 281 281 281 280 281 283 281 280 280
305 304 303 302 302 302 302 301 301 300 299 299 299 300 299 301 300 300 299 299 297 297 296 296 296 296 295 296 294 293 292 291 291 290 289 287 284 285 287 288 289 289 289 289 289 289 289 288 288 283 286 289 289 288 287 287 287 287 287 288 287 288 288 287 288 282 280 281 281 281 282 282 282 282 281 281 281 280 280 281 279 280 279 280 280
Wind_Speed
5 5 3 3 3 3 3 3 4 5 5 6 6 5 5 5 6 7 6 6 6 7 7 7 7 8 6 6 5 5 6 5 5 6 6 6 6 6 5 6 5 5 3 5 6 6 5 5 6 7 6 2 3 5 6 4 6 5 3 2 3 3 3 3 2 0 2 5 3 4 4 4 5 4 5 5 5 6 5 6 7 6 8 8 8
5 4 3 3 3 3 4 4 4 3 4 4 4 4 4 6 6 5 5 3 4 3 4 4 3 3 3 5 3 5 6 6 6 6 7 7 7 6 6 5 5 4 4 4 4 4 4 5 5 6 4 4 5 6 5 3 5 6 4 7 1 2 3 1 1 1 3 3 5 5 3 3 5 4 5 6 5 5 5 5 6 7 8 8 5
5 4 4 3 3 3 3 3 3 2 2 3 3 3 5 5 4 4 3 2 1 1 2 3 2 3 2 3 5 4 3 4 5 5 4 6 6 6 6 6 6 6 5 3 4 3 5 5 5 5 5 5 4 4 3 3 5 8 1 4 6 4 4 2 2 2 4 1 1 1 3 2 2 2 5 6 7 7 6 6 6 7 7 4 6
9 8 6 5 4 3 3 2 1 2 3 3 3 3 3 4 4 4 3 2 2 3 3 4 3 3 3 3 4 3 3 4 4 5 6 7 7 6 6 6 7 6 6 6 4 3 3 4 4 4 5 5 5 5 4 5 3 6 5 4 3 6 5 5 3 5 5 3 4 5 4 2 6 4 6 6 7 8 6 7 5 4 6 6 5
11 9 6 6 5 5 4 3 2 1 1 2 2 1 2 3 4 3 3 3 3 3 4 4 3 5 4 5 4 4 4 6 5 7 6 6 6 7 8 7 7 6 5 5 4 4 3 2 3 4 4 4 4 4 5 5 3 4 3 2 3 5 6 3 3 3 4 3 2 2 3 1 4 3 1 5 1 3 5 7 4 5 6 6 6
14 13 11 8 7 5 4 4 3 1 0 1 1 2 1 2 4 5 5 4 4 4 4 4 4 3 5 6 6 5 6 6 7 7 7 7 7 6 7 7 6 6 6 6 5 4 5 4 2 1 2 3 1 2 3 2 2 2 3 3 4 4 4 5 6 8 8 3 7 7 4 5 4 3 1 3 3 1 3 3 6 7 6 6 6
6 6 7 7 6 5 4 4 3 3 2 2 2 1 1 1 2 3 3 3 4 5 5 3 4 3 3 3 2 3 4 4 4 5 5 6 5 6 6 6 6 6 6 5 4 3 3 3 2 2 2 2 2 3 3 4 3 2 2 5 6 3 4 6 10 9 5 8 5 9 9 6 5 4 5 1 4 2 1 2 4 4 4 4 5
10 9 8 7 7 7 6 5 4 4 4 2 2 1 0 0 2 3 2 3 3 4 4 4 2 1 3 3 2 3 3 4 6 6 5 5 6 6 6 6 6 5 5 5 4 4 3 2 0 1 1 2 2 3 3 2 2 2 3 3 3 4 5 7 7 7 7 5 1 3 6 3 6 7 5 5 3 4 3 2 3 4 3 5 6
12 11 10 9 9 7 6 6 5 4 3 3 3 2 1 1 2 2 3 3 4 4 4 4 1 1 2 2 4 3 3 4 5 4 5 5 5 6 5 6 6 6 5 5 4 3 3 3 2 0 0 1 0 1 1 1 2 2 2 3 5 6 8 8 7 7 5 6 3 3 1 3 6 5 1 5 5 2 6 3 6 7 6 5 6
10 11 11 8 8 7 6 5 5 5 5 4 1 0 0 2 3 2 3 3 3 4 4 3 0 1 2 3 4 5 4 5 4 5 5 5 5 6 5 6 6 6 6 5 4 2 2 2 3 3 2 1 1 1 1 2 2 3 2 2 3 3 5 5 7 5 4 6 4 4 4 3 2 3 4 1 2 5 7 5 5 6 9 6 3
9 8 8 7 6 6 4 5 5 4 4 3 0 0 1 2 3 3 3 3 4 4 4 3 0 1 0 1 3 3 5 4 5 6 6 6 6 6 6 6 5 5 5 5 4 4 3 3 3 3 3 3 3 2 2 2 2 2 3 4 4 4 4 5 6 5 6 6 5 5 5 5 5 3 4 2 2 3 3 6 8 10 9 8 4
9 9 8 8 6 5 4 4 4 4 3 2 1 0 1 1 2 3 3 4 4 4 4 3 0 0 0 1 3 3 3 3 4 5 5 5 5 6 6 6 6 6 5 5 6 5 3 3 3 3 3 4 4 3 3 3 3 3 3 2 3 4 4 5 4 6 6 4 5 5 5 6 6 6 4 3 4 5 6 7 7 3 4 6 5
10 9 9 8 8 8 5 5 4 4 4 4 2 1 0 1 1 2 4 4 5 4 4 4 1 1 1 2 3 3 3 3 3 4 4 4 5 5 5 6 6 6 6 6 6 6 4 4 4 4 3 3 3 2 2 2 3 3 3 3 3 4 3 2 3 4 4 5 5 5 6 6 6 4 5 5 4 4 4 6 5 4 7 5 3
10 10 10 10 10 9 9 6 5 4 4 3 2 1 1 0 1 1 4 4 4 4 4 4 2 2 1 2 3 3 4 4 4 3 5 4 4 4 4 4 4 4 5 6 6 5 5 4 4 4 3 3 3 3 3 3 2 3 3 3 4 3 4 5 5 5 4 4 4 4 4 5 5 5 5 3 3 3 5 6 6 5 4 6 3
10 10 11 11 11 10 9 7 6 5 4 4 3 2 1 2 2 2 3 4 4 4 4 4 3 2 4 4 4 4 4 4 4 3 4 4 5 4 4 4 4 5 5 4 5 5 4 5 6 5 6 6 5 5 4 4 3 3 2 3 3 2 4 4 3 3 3 3 3 3 2 3 4 3 3 6 5 6 6 4 5 7 6 4 5
10 10 11 11 10 10 9 8 7 6 6 5 4 4 3 4 4 3 3 4 4 4 4 3 2 2 2 3 4 4 4 4 5 5 5 4 5 4 5 4 4 4 5 5 7 7 8 8 9 9 8 9 9 9 9 8 8 6 5 4 4 2 2 3 4 3 4 4 3 3 2 3 3 4 5 5 4 5 5 5 4 4 7 8 4
11 11 11 11 10 9 10 9 8 7 7 7 6 6 6 5 4 4 4 3 3 2 0 1 3 3 3 3 4 5 4 4 5 5 5 5 4 5 5 4 5 6 5 6 7 8 8 8 8 8 9 8 9 9 9 8 7 7 7 7 8 6 4 4 4 4 4 4 3 4 3 2 2 1 2 3 5 6 5 5 5 7 6 8 7
13 12 12 13 12 12 10 10 10 10 10 8 8 6 6 6 5 5 3 1 4 1 0 1 3 3 4 4 4 3 3 4 4 4 4 4 5 6 6 7 6 6 6 6 7 8 8 9 7 8 8 9 9 8 8 8 8 7 8 7 8 7 6 5 5 4 5 3 3 3 3 3 2 2 3 3 2 4 3 4 5 5 6 8 6
12 13 11 11 11 11 11 11 10 10 10 9 8 7 6 5 4 5 3 1 1 2 0 1 2 2 2 3 3 3 4 4 4 4 4 4 5 6 6 6 7 7 8 8 8 8 8 7 8 8 8 9 9 9 9 8 8 7 8 7 8 8 6 7 7 8 8 9 11 12 11 10 9 8 8 7 4 3 4 5 5 4 4 6 4
13 13 12 12 12 12 13 12 11 10 8 7 7 6 7 5 5 2 0 0 3 3 0 1 1 1 3 4 4 3 3 3 3 3 4 4 4 5 5 7 6 7 7 7 8 8 9 9 8 9 9 9 9 9 8 8 7 7 7 7 7 7 7 7 8 9 8 10 11 12 11 10 8 8 9 8 8 9 9 8 5 4 4 5 5
13 13 13 12 12 10 11 11 10 7 6 6 7 8 5 3 5 4 4 4 3 1 1 0 1 1 2 3 4 4 5 4 4 3 3 4 4 5 6 5 7 7 7 8 9 8 8 7 8 8 8 8 9 9 8 7 7 8 7 7 8 7 7 8 9 11 11 11 11 11 10 10 9 9 8 8 9 9 9 8 9 9 8 7 5
14 13 12 12 11 10 10 9 7 7 7 6 7 6 5 5 6 5 4 4 4 2 2 1 1 0 1 2 3 3 4 3 4 3 3 3 4 5 5 6 7 6 8 8 8 6 7 7 8 8 8 8 8 8 8 7 8 9 8 6 8 8 10 12 11 11 11 9 10 11 11 10 9 8 9 10 9 9 9 9 10 9 8 8 9
15 14 12 11 11 10 10 10 11 10 8 8 7 7 6 6 5 5 5 3 4 4 4 3 2 1 0 1 2 3 4 4 4 3 3 3 3 4 5 7 7 7 7 7 7 7 7 7 8 8 8 8 8 7 7 7 8 7 8 8 7 8 12 11 12 11 10 10 12 11 11 10 9 10 10 10 10 9 8 9 9 8 8 8 8
9 9 9 10 10 8 7 7 10 8 8 9 7 6 6 6 6 5 5 4 3 4 3 3 2 1 1 1 3 3 4 4 4 3 4 3 3 3 5 7 7 7 7 6 7 8 8 8 8 8 8 8 8 8 7 7 7 7 8 8 7 9 11 11 11 10 10 10 10 11 11 11 10 10 10 10 9 8 8 8 8 7 7 8 8
9 10 10 10 9 9 8 8 11 9 8 8 8 7 6 6 6 6 4 4 3 3 4 4 3 1 0 0 1 2 3 3 4 4 5 5 4 4 5 8 7 7 6 6 7 7 8 9 9 8 8 8 8 7 7 8 7 6 6 7 8 10 12 11 10 10 11 10 10 9 9 10 10 9 10 9 8 10 8 8 8 7 7 6 6
12 10 10 12 12 8 7 9 9 9 9 8 8 8 7 7 7 6 5 3 3 1 3 4 4 2 1 0 1 2 2 2 3 4 4 5 6 6 6 7 7 7 7 7 7 7 7 8 8 7 7 7 7 7 7 6 6 7 7 8 8 9 10 10 9 9 9 9 9 9 9 9 10 10 8 7 8 8 7 8 9 8 8 7 7
14 13 11 9 7 8 12 12 11 10 8 9 10 9 7 7 7 6 5 5 4 2 2 5 4 3 2 1 1 0 0 2 3 4 4 5 6 6 8 8 6 6 7 7 6 7 6 6 7 7 8 7 6 6 7 7 7 7 7 8 8 9 8 8 9 9 8 8 9 9 9 9 9 8 8 8 8 8 8 8 8 7 7 7 8
10 10 12 11 10 10 12 13 11 10 9 9 9 9 9 9 9 7 6 5 3 3 2 4 4 4 3 3 2 1 2 4 4 4 5 5 6 7 8 7 7 7 7 6 6 6 5 6 7 7 6 6 7 8 8 7 6 6 6 7 7 8 9 8 8 9 9 9 8 8 9 8 8 7 7 7 7 7 6 8 8 7 8 8 8
13 13 12 12 12 12 12 12 11 9 10 10 8 7 7 7 7 7 6 6 4 4 4 4 4 3 3 3 0 3 4 5 5 5 5 6 7 7 7 7 6 7 6 6 5 6 7 8 8 7 7 7 8 7 6 6 5 7 6 6 7 7 8 8 8 8 8 9 8 7 8 9 12 15 16 13 12 10 6 8 8 8 9 8 8
14 14 15 14 14 13 13 12 11 11 12 11 9 9 9 9 7 7 7 5 4 4 5 4 3 2 2 3 4 4 5 5 6 5 4 5 6 7 8 8 7 6 5 5 6 7 7 7 8 8 8 7 7 6 9 12 9 5 6 5 6 7 7 7 7 7 8 8 8 8 9 18 17 17 16 14 14 14 13 9 7 9 9 8 8
15 16 15 14 13 12 12 12 12 12 13 12 10 10 9 8 7 7 7 6 5 5 4 5 3 2 3 4 5 4 5 5 4 4 4 6 6 7 7 7 6 5 5 4 6 8 6 6 7 7 8 7 7 7 14 14 15 13 7 6 6 7 7 8 7 7 7 7 7 7 7 10 12 13 12 15 15 15 14 14 12 11 11 9 8
15 15 14 12 12 12 12 12 12 11 11 10 9 9 9 8 7 8 8 6 5 5 5 4 4 4 5 5 5 5 5 5 4 4 5 6 6 7 7 6 6 6 4 5 6 5 5 5 6 7 7 7 7 11 14 15 14 14 10 7 6 7 7 7 7 7 6 6 6 6 7 6 8 11 9 9 11 14 14 13 13 13 13 12 9
15 14 12 13 14 14 14 12 10 11 11 10 11 10 9 8 7 7 6 6 5 5 5 5 3 5 5 5 6 6 5 5 4 4 5 7 7 6 6 6 6 5 4 5 4 5 5 5 6 7 7 6 6 11 13 14 14 14 13 9 7 6 7 6 6 6 7 6 6 6 6 7 7 14 10 8 8 9 10 12 13 12 13 16 15
13 13 14 14 11 10 11 13 11 10 11 10 10 11 10 8 8 6 7 6 6 5 6 5 5 5 5 5 6 6 5 5 4 4 5 6 7 6 5 5 5 5 5 4 4 5 4 5 5 6 6 6 6 9 12 13 13 13 12 9 5 6 6 6 6 5 5 6 6 6 7 7 7 7 8 8 7 7 7 7 8 8 9 11 13
11 10 9 11 13 11 9 8 9 10 8 9 7 9 8 7 7 7 5 7 6 7 5 6 6 5 5 6 6 6 5 4 4 4 4 5 7 6 6 5 6 6 6 6 6 5 4 4 4 5 7 7 6 10 11 12 12 11 11 8 5 5 5 4 4 4 4 4 4 5 5 5 6 7 7 9 7 7 6 6 7 8 9 9 9
13 12 12 12 12 14 14 12 8 9 8 9 10 9 9 8 6 7 5 7 7 7 6 5 5 5 6 6 6 6 5 4 4 4 4 4 5 7 7 5 4 4 4 4 4 5 5 4 3 4 7 6 6 11 11 12 12 10 9 6 5 5 4 4 3 3 4 3 3 5 6 6 6 6 11 12 9 4 5 6 8 6 7 7 8
10 13 14 15 15 13 11 10 9 9 10 9 9 9 9 7 7 5 7 7 7 7 6 6 6 5 5 6 7 6 5 5 4 4 4 3 4 7 6 5 6 5 5 5 5 4 4 4 4 4 7 6 6 9 11 12 12 11 8 6 5 6 6 6 5 4 5 6 4 5 5 7 7 7 11 12 12 7 5 7 7 7 7 7 9
6 5 7 8 7 8 9 12 11 10 10 10 9 9 9 8 7 5 8 7 8 8 6 6 6 5 6 6 6 7 6 5 5 5 4 3 3 5 6 5 7 5 4 4 5 6 4 3 5 4 4 7 5 7 10 11 11 12 8 5 4 5 6 6 5 5 5 5 7 14 10 6 7 8 12 12 12 6 6 6 7 7 8 10 9
12 14 11 10 11 13 12 11 12 11 8 9 9 10 9 8 6 6 8 8 8 8 7 7 6 5 6 6 6 6 6 6 5 4 4 4 4 5 6 5 5 5 5 4 5 6 5 3 3 4 8 7 5 6 10 10 11 10 7 4 5 5 6 6 6 6 5 6 7 8 13 12 10 10 13 12 11 7 7 7 6 8 10 10 8
5 7 12 13 12 11 10 11 12 11 9 9 9 9 8 8 7 6 8 8 8 8 7 7 6 6 6 6 5 6 6 6 6 4 4 4 4 4 5 6 5 6 6 5 5 7 6 4 3 3 3 4 6 5 6 10 10 10 9 5 5 7 6 5 5 5 7 7 7 7 8 12 14 13 12 11 11 11 8 7 7 9 9 10 7
9 10 11 12 12 14 15 14 11 10 9 8 9 9 8 8 7 7 9 9 8 7 8 8 7 7 6 6 5 6 7 5 5 5 4 4 4 5 4 4 5 5 4 7 6 6 6 5 3 3 3 2 3 4 5 8 8 8 8 6 5 5 3 3 3 4 5 6 6 7 6 10 13 11 10 10 11 12 11 8 9 9 7 5 5
5 10 10 9 9 8 8 6 7 10 9 8 9 9 8 8 7 8 8 7 7 8 8 7 7 7 6 6 6 5 6 6 4 4 4 4 4 4 4 4 3 4 6 7 7 7 6 5 3 3 2 3 5 8 4 7 8 8 9 8 5 4 3 3 5 5 5 5 5 5 5 8 11 9 9 11 12 12 13 8 10 12 12 12 8
8 5 7 12 9 10 11 10 8 9 9 8 10 10 8 7 9 9 7 8 8 8 8 8 7 7 6 6 5 6 6 5 5 5 5 5 3 3 2 2 4 3 6 7 8 7 6 5 4 3 3 3 3 4 7 4 7 9 10 10 9 6 8 5 5 4 4 4 3 4 4 9 8 9 12 13 12 13 10 10 13 13 13 13 9
11 14 11 10 11 9 9 7 8 8 9 8 11 10 8 8 9 6 7 7 8 8 8 8 7 7 6 6 5 5 5 5 6 5 5 4 4 4 4 4 5 6 7 6 6 6 6 6 5 3 2 1 2 3 5 7 5 9 9 9 9 9 8 4 3 3 3 4 5 5 6 7 8 11 12 12 12 11 10 14 13 13 13 10 7
12 11 11 11 13 12 10 9 9 10 9 9 8 11 8 9 7 7 8 9 8 8 9 8 8 7 7 6 5 5 5 5 4 5 5 5 5 5 5 3 7 7 7 7 6 6 7 6 5 5 3 1 2 3 3 4 6 7 8 8 7 7 8 6 4 3 3 3 5 7 4 9 11 11 11 10 9 12 14 14 14 13 11 7 8
11 9 11 12 11 12 12 12 10 10 10 9 9 10 12 9 6 8 8 9 9 9 8 9 8 7 7 6 5 5 5 5 4 4 5 6 7 5 6 4 6 6 7 7 6 6 6 6 6 5 4 3 0 0 1 1 3 5 4 6 6 6 8 8 6 4 6 6 6 6 10 11 11 9 6 5 5 7 12 13 13 11 7 7 7
12 15 13 9 10 11 12 13 13 10 10 9 10 9 10 8 9 8 8 8 9 10 9 8 8 8 7 6 6 6 5 4 4 3 5 5 6 6 6 6 6 7 5 5 6 6 6 6 6 6 4 3 2 1 0 2 2 2 2 3 3 3 5 5 6 5 6 6 6 6 5 8 8 10 9 8 8 8 7 7 7 7 7 7 7
14 13 13 12 13 13 13 13 13 13 11 11 10 10 9 9 9 8 8 8 9 9 10 9 9 8 7 7 7 8 8 5 4 6 6 4 3 5 7 7 7 7 7 6 6 6 7 7 6 6 5 4 1 1 2 2 2 1 2 2 2 3 5 5 5 5 5 4 3 4 7 6 6 6 7 6 6 6 6 6 6 6 6 6 7
9 9 12 14 13 13 14 15 14 12 12 11 11 10 9 11 11 9 9 9 9 8 9 9 8 8 8 7 7 7 6 6 5 4 3 2 5 6 7 4 2 4 7 8 7 6 5 6 7 7 6 3 1 1 1 4 1 1 0 1 3 3 3 4 3 5 3 3 3 6 6 6 5 4 5 6 6 6 6 6 6 6 6 6 6
13 13 14 14 15 16 15 15 13 12 12 12 12 10 10 10 11 11 11 11 9 9 8 9 8 8 8 8 7 7 6 6 7 7 6 4 7 7 2 5 5 2 3 5 8 6 8 7 6 4 3 4 5 3 6 6 3 2 3 2 2 2 2 2 4 5 2 2 3 5 4 4 4 4 5 4 5 5 5 6 5 5 5 6 6
11 10 12 13 13 13 14 14 12 11 12 12 12 11 11 10 11 12 13 12 10 9 8 8 8 8 9 9 7 7 6 6 7 8 7 7 4 5 8 9 6 4 5 5 4 9 11 8 8 4 1 3 6 7 8 6 5 4 3 3 3 2 2 2 1 2 3 3 4 5 3 4 3 4 5 4 4 4 4 5 5 5 6 5 5
Wind_Direction
155 148 146 131 100 62 46 36 27 24 18 27 31 20 20 12 14 7 349 16 31 14 8 7 357 348 356 359 347 336 334 338 336 332 337 329 328 328 325 313 316 297 254 198 214 213 209 224 223 244 239 181 219 252 263 322 329 297 276 267 261 273 286 286 291 115 294 296 283 277 278 232 226 236 244 245 229 219 203 200 211 204 211 211 214
133 129 125 104 92 64 49 32 31 40 358 17 22 358 3 13 18 350 354 13 28 31 3 351 333 320 308 308 323 324 332 341 337 338 336 328 325 323 321 317 316 304 278 248 238 218 227 229 224 231 236 232 219 237 238 221 266 287 319 321 320 266 260 250 267 4 274 235 284 313 305 286 243 242 247 251 242 241 226 208 210 213 213 215 210
158 155 142 128 103 70 58 51 30 25 357 3 350 14 3 1 355 355 357 0 345 321 38 328 304 316 0 311 339 314 307 329 329 318 324 320 312 319 322 325 327 324 317 280 246 235 226 224 228 223 223 224 223 227 230 216 223 264 236 218 288 299 293 269 254 181 237 193 164 325 282 312 334 293 270 253 244 236 229 229 212 213 216 189 188
164 161 154 141 128 121 107 105 47 15 15 4 1 354 350 348 348 347 342 352 337 332 9 326 291 320 354 348 327 343 298 325 328 325 334 336 335 325 327 333 330 322 320 323 298 252 218 225 235 222 230 216 213 230 222 226 208 244 260 242 247 282 264 281 224 205 208 187 293 222 230 181 278 274 234 250 225 231 226 234 230 186 179 185 167
158 153 157 147 141 149 158 155 87 61 358 338 327 316 340 311 316 328 334 354 326 344 357 332 346 6 357 354 0 352 347 354 350 341 334 323 323 341 330 325 322 316 315 315 300 282 267 244 240 242 228 221 216 231 240 240 224 221 231 254 224 246 281 290 312 311 252 238 252 60 309 272 223 250 6 277 307 219 231 231 215 195 192 185 192
160 165 167 162 154 155 146 128 130 119 10 265 252 283 277 323 337 344 346 348 338 341 347 357 25 40 17 17 7 2 352 346 348 329 327 329 322 306 314 323 320 323 338 336 336 340 341 327 297 309 352 10 2 308 322 318 230 236 234 242 258 210 231 292 283 268 268 222 199 244 212 209 300 299 50 278 332 281 309 234 209 207 206 198 203
162 146 149 155 160 150 157 154 168 168 241 240 283 279 299 294 316 327 333 330 329 345 341 1 29 39 40 30 355 352 338 305 303 298 298 302 307 315 315 321 332 339 343 357 9 8 353 352 80 134 171 182 178 174 206 221 229 211 165 208 228 173 168 237 253 270 286 269 236 210 219 219 229 261 261 2 317 312 329 276 253 229 216 207 217
159 162 165 162 161 160 169 186 175 196 215 244 267 269 250 287 320 339 320 349 325 345 342 345 47 34 36 7 341 357 327 298 307 309 304 303 317 320 325 330 332 338 343 2 11 10 358 0 29 164 184 200 195 188 197 203 218 227 211 225 236 227 214 221 243 246 247 271 288 355 325 292 244 233 232 229 265 301 307 318 297 272 237 232 230
163 163 168 166 167 168 169 175 194 195 216 219 225 247 265 296 15 12 358 351 318 336 344 331 317 118 62 3 7 327 307 305 305 304 314 319 328 327 337 331 332 338 344 354 6 3 340 335 350 44 191 251 277 164 192 204 235 245 193 235 241 224 213 217 228 231 219 252 315 302 293 275 285 296 195 131 184 213 275 257 280 344 323 281 256
169 166 162 164 164 167 173 172 168 193 198 206 222 6 315 22 26 13 352 330 314 331 333 311 322 99 36 3 17 331 329 319 329 324 328 331 335 332 330 335 336 337 339 345 351 336 331 344 357 1 343 310 325 350 328 297 284 286 270 270 269 243 218 224 227 236 199 221 202 226 245 273 291 241 235 186 161 192 236 255 264 240 252 262 257
164 163 159 157 161 153 156 169 191 191 196 192 121 59 29 40 26 8 313 307 322 327 339 307 293 142 103 15 7 336 327 326 339 338 337 345 347 333 336 332 328 330 329 335 340 338 334 345 351 333 329 340 346 354 304 300 296 268 261 265 272 261 238 229 233 232 229 231 222 207 227 230 228 231 255 200 188 228 235 254 261 259 249 275 256
162 155 151 150 140 145 157 186 207 190 173 181 108 357 83 38 42 7 319 321 315 319 335 318 336 291 241 347 356 322 319 318 323 321 323 325 325 324 328 336 342 332 338 346 351 349 345 347 347 351 349 351 347 330 328 315 304 300 303 294 273 257 248 235 227 233 225 229 233 243 238 229 233 234 240 221 201 223 219 251 244 258 271 231 273
161 158 151 152 163 154 198 196 207 195 182 181 186 201 122 8 13 11 308 300 306 325 336 310 312 302 283 326 330 325 318 315 308 309 314 315 313 318 338 344 338 343 349 353 345 346 343 350 352 356 354 348 333 338 321 312 305 290 271 262 260 288 285 277 262 238 228 227 228 220 221 234 252 264 257 245 233 224 219 256 251 234 262 285 277
164 158 159 165 173 173 183 184 192 208 197 164 191 178 184 241 284 295 286 288 306 327 325 319 316 292 292 307 303 323 318 314 310 312 316 313 302 306 322 330 332 337 341 348 337 340 354 346 346 344 340 333 331 336 332 316 316 304 297 291 303 284 271 261 246 246 236 235 239 249 226 226 238 237 248 263 258 234 238 235 264 268 248 266 266
160 163 167 177 178 175 177 177 184 194 187 168 172 201 212 250 273 270 293 298 321 326 334 340 321 329 340 343 338 330 317 319 308 312 322 325 326 329 336 347 359 344 350 332 347 356 358 353 356 360 2 1 356 350 351 350 348 343 328 307 304 283 296 286 273 264 263 262 259 251 252 225 231 227 233 245 242 243 241 227 209 250 268 235 258
167 167 174 182 177 177 171 175 178 181 178 169 181 191 194 228 233 243 246 273 307 351 359 5 54 67 7 0 352 354 337 329 334 341 342 344 337 350 359 6 360 4 2 14 15 19 18 22 24 24 24 23 20 17 15 12 4 1 349 348 334 320 307 303 296 281 273 273 267 251 234 240 233 238 235 249 248 240 225 233 221 233 251 272 260
171 174 180 179 178 179 174 173 176 176 174 178 186 188 191 208 216 243 267 280 320 343 301 302 73 45 360 1 6 2 352 344 340 341 347 349 7 10 21 17 18 23 19 29 36 33 34 32 29 22 22 22 23 19 16 13 8 10 8 7 3 348 350 334 321 311 308 305 301 297 286 263 258 234 242 238 246 238 236 234 230 242 245 253 264
173 178 181 178 178 176 175 178 178 179 178 181 188 189 196 197 194 198 255 297 340 351 87 299 55 27 358 359 353 355 344 342 348 349 351 21 24 24 25 29 31 30 41 42 41 38 31 32 28 25 22 23 21 17 14 11 9 11 6 10 4 356 6 10 4 357 355 344 341 342 325 320 325 316 303 298 263 236 245 242 235 224 223 236 234
176 180 177 177 177 177 177 181 185 181 178 180 185 184 197 204 202 176 199 120 82 63 29 1 38 24 3 357 347 349 349 345 348 2 21 41 42 42 41 33 35 33 34 36 38 36 34 30 29 29 23 21 19 17 10 11 7 13 10 7 2 360 6 25 24 25 28 34 39 37 29 28 20 21 18 9 349 284 254 253 252 240 215 240 260
177 177 178 179 181 179 179 181 180 178 177 181 174 176 195 201 177 175 34 96 86 109 185 75 17 36 20 0 358 349 346 346 351 13 30 43 48 54 53 52 40 45 40 45 44 38 32 30 27 30 25 21 21 15 10 7 10 17 8 8 359 2 13 35 42 40 43 42 42 40 34 29 20 32 30 21 14 7 4 356 328 285 259 243 249
178 176 178 179 181 180 183 182 177 167 169 163 158 176 183 160 155 158 128 85 94 131 89 6 332 346 14 17 350 346 346 350 1 14 48 50 63 65 58 58 53 43 43 48 45 40 35 33 32 32 28 22 19 16 8 7 15 10 10 6 2 9 22 41 50 46 39 41 39 38 29 23 20 33 28 22 15 7 12 14 14 8 5 356 321
176 177 175 177 178 178 181 173 159 147 158 150 163 156 149 152 151 148 127 123 121 141 159 206 261 295 1 350 354 342 343 357 17 13 47 62 73 76 77 69 67 52 47 49 44 40 39 36 38 33 30 26 23 20 12 11 19 13 13 10 7 16 48 55 51 46 41 39 38 36 24 13 14 22 31 29 13 9 12 12 17 11 8 357 351
177 174 175 172 174 175 170 162 161 159 158 155 156 151 154 153 143 143 131 144 125 142 172 182 198 219 252 321 355 355 350 10 34 27 46 58 76 83 80 82 75 65 55 50 41 39 38 40 43 35 29 28 22 19 13 16 14 1 9 12 15 34 65 60 55 47 40 37 37 32 21 11 10 22 27 24 16 16 15 21 13 8 4 352 351
166 166 167 168 171 173 161 140 151 151 154 160 158 153 154 148 141 138 135 152 115 121 170 168 187 261 279 9 4 354 9 22 45 43 55 57 75 80 83 85 80 70 61 49 45 35 35 37 41 35 31 27 23 17 15 17 14 8 12 17 24 56 68 65 61 53 43 41 37 33 20 14 11 24 21 19 15 14 18 13 6 3 1 352 349
162 165 165 166 168 171 168 146 155 159 160 155 155 162 155 143 140 140 152 158 162 133 137 177 170 233 301 344 339 360 19 33 55 64 69 68 76 88 94 93 86 72 61 53 46 40 37 35 35 29 26 26 19 15 17 16 14 8 13 21 40 64 67 66 61 56 54 48 44 42 27 21 18 25 22 19 9 14 13 15 14 3 357 349 347
166 162 161 167 176 172 146 154 158 164 161 155 159 157 156 149 152 148 148 157 156 107 120 143 157 188 224 273 324 356 21 59 81 78 77 75 73 76 86 90 87 82 69 54 50 41 40 36 34 28 29 24 19 20 20 16 13 14 21 32 46 63 70 67 62 58 56 51 47 42 37 33 29 28 19 14 11 13 12 17 14 6 3 356 1
168 167 167 162 149 156 161 164 166 168 159 159 158 162 153 149 150 152 157 154 168 122 141 139 162 189 212 247 267 296 303 77 84 91 83 76 75 76 88 99 93 84 77 66 53 52 38 41 34 30 28 20 20 25 24 18 18 23 30 41 55 61 65 63 57 53 49 50 49 42 38 36 35 28 22 16 6 14 15 16 15 10 9 12 18
158 160 165 165 165 165 164 166 166 166 160 159 160 158 154 154 156 160 159 152 165 133 160 162 144 192 205 240 266 311 86 84 79 79 82 86 84 81 89 96 93 82 75 70 60 54 41 39 33 33 23 20 24 27 22 16 18 25 32 45 60 68 65 61 55 51 48 44 44 46 41 38 40 33 25 17 17 16 13 24 17 17 17 22 26
163 170 168 166 172 171 166 165 165 157 156 155 157 152 150 154 154 161 157 163 163 128 140 169 156 151 211 226 155 98 90 84 85 84 87 91 90 94 95 98 92 86 80 74 68 58 47 38 31 30 27 24 31 24 18 6 10 27 33 51 63 69 71 67 59 52 49 46 37 35 43 40 41 38 31 25 23 23 29 32 26 24 26 24 25
171 175 178 179 175 167 166 162 159 156 155 156 154 153 154 154 163 159 155 170 140 140 136 159 158 171 189 154 112 107 97 90 89 91 97 95 95 97 100 102 99 97 93 85 73 61 53 42 35 27 28 28 23 19 8 22 30 36 45 54 64 63 65 63 59 52 47 46 42 32 33 41 36 32 26 17 19 17 24 39 37 33 30 32 30
181 182 183 181 174 169 164 162 163 159 160 159 158 154 152 153 154 148 153 167 139 154 147 159 176 176 145 127 109 107 102 95 101 99 90 90 95 99 99 103 105 106 98 88 75 65 54 43 40 35 31 28 20 9 12 28 29 33 50 57 67 65 63 62 57 54 50 45 38 35 24 30 32 25 17 12 16 18 19 26 29 38 42 40 31
191 189 184 176 174 171 169 169 167 164 157 153 150 149 145 149 150 147 154 154 138 153 155 160 174 132 126 121 114 109 104 105 95 84 88 104 109 104 104 107 109 105 101 91 79 74 64 47 45 43 40 27 23 8 21 28 32 35 45 60 62 69 65 60 58 54 51 49 41 36 30 21 25 30 23 6 9 11 14 21 25 23 31 37 45
194 192 184 180 180 179 173 168 165 163 157 157 147 141 147 154 152 160 149 140 137 143 146 157 144 121 129 122 114 111 113 110 107 99 94 102 108 107 108 108 108 118 107 98 102 83 69 53 50 49 42 29 28 8 24 32 35 38 44 59 60 67 68 63 60 57 54 49 41 36 34 29 16 24 21 12 11 4 4 16 25 25 29 31 25
197 189 184 185 180 175 175 170 165 162 156 154 151 147 153 157 153 154 145 140 132 143 140 141 132 137 137 130 122 120 121 124 119 106 103 106 114 122 121 116 115 108 110 114 108 97 84 67 60 58 48 35 35 9 28 36 39 42 46 57 63 69 73 70 65 62 59 55 43 38 30 22 13 21 19 14 8 7 5 14 22 30 31 24 24
204 196 178 178 180 174 160 157 160 156 149 140 141 141 144 149 153 155 154 138 134 135 136 137 140 145 132 128 126 127 130 130 118 113 104 108 117 128 130 134 129 131 130 133 131 118 99 85 73 67 63 42 25 19 35 39 41 42 46 59 53 59 69 70 67 65 67 65 57 45 39 30 15 16 21 15 10 5 5 20 30 33 32 29 28
200 185 178 174 175 172 171 168 155 146 148 146 147 147 143 159 163 155 156 146 136 131 135 134 142 149 139 137 132 133 133 130 123 114 109 108 117 135 144 147 129 127 126 122 115 115 112 99 83 77 75 56 25 23 36 41 41 39 47 54 51 54 49 44 42 45 37 40 59 48 34 23 17 16 7 12 13 6 15 31 36 32 33 31 32
184 172 176 181 179 168 158 146 148 147 144 147 146 145 147 154 162 157 153 148 137 136 143 145 150 155 141 140 138 136 135 130 129 121 119 116 107 129 145 143 132 146 144 142 142 121 123 116 88 68 79 65 42 25 35 42 42 38 50 46 45 52 46 38 23 18 21 16 19 44 42 19 12 13 5 7 8 16 32 36 34 33 33 33 28
144 151 155 152 140 133 141 144 144 148 149 146 147 146 151 158 166 155 152 149 142 151 154 146 152 158 144 143 143 138 135 135 129 133 133 116 101 115 145 154 148 158 159 160 126 110 107 101 96 81 74 82 57 32 41 42 43 42 46 53 44 60 52 36 18 16 13 13 13 23 31 27 13 5 5 10 12 21 40 36 37 35 36 34 21
148 147 147 148 150 149 146 140 141 146 157 150 148 147 153 165 167 159 158 153 153 157 156 149 153 149 146 145 143 134 133 135 137 149 141 123 117 125 143 149 153 156 163 143 120 115 109 98 103 97 87 84 73 43 39 42 47 44 45 41 43 57 53 30 17 10 6 16 5 6 12 15 12 3 7 15 23 33 48 41 37 41 38 34 16
130 138 144 140 133 127 136 147 154 160 159 154 150 151 160 168 172 159 157 164 166 165 161 148 145 142 142 143 143 135 135 136 143 152 141 139 142 127 141 148 162 165 161 137 124 124 118 106 79 69 72 76 83 62 43 43 43 43 43 49 38 51 37 23 15 20 9 359 5 1 0 0 4 4 10 19 33 43 54 44 44 45 36 26 358
142 136 135 138 149 150 156 163 162 158 159 156 152 154 168 176 171 159 169 173 169 157 149 150 146 141 141 144 146 143 144 148 149 151 153 134 132 143 142 133 146 147 138 126 130 120 112 109 106 99 100 96 96 83 57 46 47 50 47 52 53 60 53 49 41 29 25 12 355 352 340 351 357 2 16 31 42 48 52 53 49 51 41 13 6
107 133 134 132 138 140 140 144 154 161 160 155 155 163 172 174 171 178 180 168 156 153 148 146 148 145 144 145 147 149 149 154 157 139 132 145 150 144 158 165 139 108 99 121 129 121 121 121 115 102 84 70 78 82 70 46 42 49 51 50 60 45 37 54 42 29 13 11 353 337 332 340 352 14 44 52 54 53 50 56 52 51 37 27 26
133 136 150 141 145 155 165 164 166 164 161 158 157 166 173 171 178 189 171 161 156 146 147 146 146 147 148 150 151 150 152 152 158 155 147 163 164 119 87 121 164 97 96 117 126 127 122 115 97 72 58 56 37 58 57 52 42 43 44 45 47 46 37 49 57 32 2 333 322 330 326 349 7 56 64 58 57 54 50 50 50 46 36 26 24
165 162 165 160 156 162 162 166 162 165 164 162 160 166 173 174 190 179 160 159 151 146 145 145 150 153 153 157 160 161 159 153 156 157 151 133 100 97 94 106 123 119 118 116 126 125 122 128 130 128 95 60 44 51 47 41 36 39 39 38 39 43 43 39 45 30 358 342 342 351 337 343 55 63 64 61 58 58 55 47 46 45 36 29 27
170 177 170 164 163 170 167 166 170 167 170 168 165 164 175 186 193 162 165 159 152 147 147 151 156 162 162 167 162 168 172 169 165 148 128 118 121 118 97 90 111 111 118 124 136 143 144 146 147 153 174 128 49 38 6 17 24 31 31 28 28 36 38 37 41 14 9 348 324 317 346 58 58 55 55 57 53 51 50 48 47 43 39 32 30
173 167 174 177 172 168 166 169 177 175 172 172 172 164 174 194 172 173 167 157 148 149 153 159 162 165 169 166 163 181 183 180 168 158 141 147 145 130 120 120 112 117 124 128 134 137 145 152 159 172 168 178 131 327 330 338 21 22 12 15 15 28 35 36 40 21 352 342 354 33 52 56 54 51 49 48 53 48 47 47 48 45 37 36 31
180 186 176 168 165 171 176 172 176 186 176 178 175 181 176 162 171 174 167 158 154 156 159 161 167 170 170 167 169 179 185 187 146 121 135 147 139 127 126 131 131 129 131 132 136 133 135 143 159 171 174 179 213 229 352 26 32 28 7 0 357 22 28 40 34 14 8 5 11 28 60 66 68 58 56 55 53 45 41 41 41 41 38 34 31
189 181 178 172 173 175 178 179 182 185 181 178 179 181 174 164 168 170 165 160 160 163 164 171 171 170 171 174 177 183 181 162 138 139 137 131 137 144 144 151 153 155 143 152 146 151 152 152 154 163 166 180 225 9 34 35 344 22 12 350 355 27 32 32 25 8 354 344 353 35 50 41 41 41 37 35 37 41 41 44 45 42 40 32 35
195 189 179 178 183 182 182 182 187 184 180 178 182 181 175 167 170 168 164 165 170 171 167 171 173 168 174 178 180 182 175 142 132 117 102 121 160 169 151 151 206 176 161 155 165 164 168 171 153 159 150 148 138 172 218 183 194 200 53 1 10 10 5 15 21 359 344 355 30 52 51 44 42 50 43 42 35 35 34 39 46 42 34 29 26
195 186 190 191 187 183 184 187 188 181 182 181 181 180 179 175 169 170 167 171 171 170 170 177 176 176 173 173 179 172 152 147 145 145 129 80 36 43 38 155 159 137 166 167 147 168 176 160 144 179 164 157 185 196 149 162 184 222 245 237 259 286 308 333 348 0 51 42 47 77 63 77 68 65 60 54 50 45 39 38 37 41 33 31 33
197 194 201 199 197 193 187 188 185 181 185 184 182 180 177 179 175 173 173 173 166 171 178 179 179 184 179 176 175 164 162 153 156 152 149 134 109 38 40 51 73 90 114 136 166 148 152 160 148 150 176 141 136 135 151 167 183 216 240 270 281 296 326 321 320 56 46 81 102 98 89 78 84 81 72 64 61 56 44 47 44 43 32 31 31